Weather History for Dayton, OH

Change the Weather History Date:

Tuesday, August 6, 2013

  Actual Average Record
Temperature  
Mean Temperature 72 °F 73 °F  
Max Temperature 81 °F 83 °F 101 °F (1918)
Min Temperature 63 °F 64 °F 49 °F (1994)
Degree Days  
Heating Degree Days 0 0  
Month to date heating degree days 0 0  
Since 1 June heating degree days 14 22  
Since 1 July heating degree days 3 0  
Cooling Degree Days 7 9  
Month to date cooling degree days 35 54  
Year to date cooling degree days 663 593  
Since 1 June cooling degree days 532 523  
Growing Degree Days 22 (Base 50)    
Moisture  
Dew Point 62 °F    
Average Humidity 74    
Maximum Humidity 93    
Minimum Humidity 54    
Precipitation  
Precipitation 0.00 in 0.10 in 1.23 in (1926)
Month to date precipitation 0.40 0.59  
Year to date precipitation 21.40 25.91  
Snow  
Snow 0.00 in 0.00 in 0.00 in ()
Month to date snowfall 0.0 0.0  
Since 1 June snowfall 0.0 0.0  
Since 1 July snowfall 0.0 0.0  
Snow Depth 0.00 in    
Sea Level Pressure  
Sea Level Pressure 29.97 in    
Wind  
Wind Speed 8 mph (SSE)    
Max Wind Speed 15 mph    
Max Gust Speed 20 mph    
Visibility 10 miles    
Events      
T = Trace of Precipitation, MM = Missing Value Source: NWS Daily Summary

Daily Weather History Graph

Daily Weather History Graph

Search for Another Location

Airport:

Trip Planner

Search our weather history database for the weather conditions in past years. The results will help you decide how hot, cold, wet, or windy it might be!

Date:

Astronomy

Aug. 06, 2013 Rise Set
Actual Time 6:40 AM EDT 8:44 PM EDT
Civil Twilight 6:10 AM EDT 9:14 PM EDT
Nautical Twilight 5:34 AM EDT 9:50 PM EDT
Astronomical Twilight 4:54 AM EDT 10:29 PM EDT
Moon 6:30 AM EDT (8/6) 8:18 PM EDT (8/6)
Length of Visible Light 15h 03m
Length of Day
14h 04m
Waning Crescent, 0% of the Moon is Illuminated
Aug 6
Waning Crescent
Aug 6
New
Aug 14
First Quarter
Aug 20
Full
Aug 28
Last Quarter

Hourly Weather History & Observations

Time (EDT) Temp. Heat Index Dew Point Humidity Pressure Visibility Wind Dir Wind Speed Gust Speed Precip Events Conditions
12:56 AM 64.0 °F - 61.0 °F 90% 30.00 in 10.0 mi ESE 3.5 mph - N/A   Clear
1:56 AM 63.0 °F - 60.1 °F 90% 29.99 in 10.0 mi SE 5.8 mph - N/A   Clear
2:56 AM 64.0 °F - 60.1 °F 87% 29.97 in 10.0 mi SSE 6.9 mph - N/A   Clear
3:56 AM 63.0 °F - 57.9 °F 84% 29.98 in 10.0 mi SSE 8.1 mph - N/A   Clear
4:56 AM 64.0 °F - 57.9 °F 80% 29.96 in 10.0 mi SSE 9.2 mph - N/A   Mostly Cloudy
5:56 AM 63.0 °F - 57.9 °F 84% 29.96 in 10.0 mi SE 8.1 mph - N/A   Mostly Cloudy
6:56 AM 64.0 °F - 57.9 °F 80% 29.98 in 10.0 mi SSE 8.1 mph - N/A   Mostly Cloudy
7:56 AM 66.0 °F - 57.0 °F 73% 29.99 in 10.0 mi SSE 8.1 mph - N/A   Mostly Cloudy
8:56 AM 69.1 °F - 57.9 °F 68% 29.99 in 10.0 mi SE 9.2 mph - N/A   Scattered Clouds
9:56 AM 72.0 °F - 59.0 °F 64% 29.99 in 10.0 mi SSE 5.8 mph - N/A   Partly Cloudy
10:56 AM 75.9 °F - 59.0 °F 56% 29.99 in 10.0 mi SSE 10.4 mph - N/A   Partly Cloudy
11:56 AM 78.1 °F - 60.1 °F 54% 29.97 in 10.0 mi South 13.8 mph 19.6 mph N/A   Scattered Clouds
12:56 PM 79.0 °F - 61.0 °F 54% 29.97 in 10.0 mi SSW 11.5 mph - N/A   Overcast
1:56 PM 79.0 °F - 61.0 °F 54% 29.97 in 10.0 mi SSE 10.4 mph - N/A   Overcast
2:56 PM 78.1 °F - 62.1 °F 58% 29.96 in 10.0 mi South 11.5 mph - N/A   Overcast
3:56 PM 80.1 °F 81.7 °F 64.0 °F 58% 29.96 in 10.0 mi SSE 9.2 mph - N/A   Overcast
4:56 PM 79.0 °F - 64.9 °F 62% 29.95 in 10.0 mi South 10.4 mph - N/A   Mostly Cloudy
5:56 PM 79.0 °F - 64.9 °F 62% 29.94 in 10.0 mi South 9.2 mph - N/A   Overcast
6:56 PM 79.0 °F - 64.9 °F 62% 29.94 in 10.0 mi SSW 8.1 mph - N/A   Scattered Clouds
7:56 PM 79.0 °F - 64.9 °F 62% 29.94 in 10.0 mi South 9.2 mph - N/A   Overcast
8:56 PM 77.0 °F - 66.0 °F 69% 29.94 in 10.0 mi South 6.9 mph - N/A   Scattered Clouds
9:56 PM 75.0 °F - 66.0 °F 73% 29.94 in 10.0 mi South 5.8 mph - N/A   Partly Cloudy
10:56 PM 73.0 °F - 66.0 °F 79% 29.94 in 10.0 mi South 3.5 mph - N/A   Clear
11:56 PM 72.0 °F - 66.0 °F 81% 29.94 in 10.0 mi SSE 5.8 mph - N/A   Clear